Location: Nitra
(0.0000°N, 18.0833°E)
Time: 05:08:57
(UTC+01:00)

GPS 2-17 Rocket1 - Pass Details

Date: 25 September 2022
Orbit: 568 x 654 km, 20.3° (Epoch: 30 November)

Event Time Altitude Azimuth Distance (km) Brightness Sun altitude
Rises 19:16:37 0° 254° (WSW) 2,752 8.1 -9.3°
Reaches altitude 10° 19:18:56 10° 256° (WSW) 1,851 7.0 -9.9°
Maximum altitude 19:23:12 65° 339° (NNW) 621 3.1 -11.0°
Enters shadow 19:26:55 13° 59° (ENE) 1,642 4.7 -11.9°
